Wind_Speed
4 5 4 4 2 3 5 5 2 2 2 1 2 3 3 4 5 6 6 6 5 5 4 4 3 4 5 7 8 7 8 9 8 8 7 7 7 6 6 6 5 5 3 3 5 7 9 10 11 10 9 9 8 7 7 6 6 6 5 4 4 4 4 4 4 4 4 4 5 4 4 3 2 2 1 1 1 2 2 3 4 4 5 5 6 7
4 5 3 3 2 1 4 5 4 4 2 1 3 3 4 3 6 5 4 6 5 4 4 5 4 5 6 6 8 8 8 9 9 9 8 8 7 6 6 6 5 4 3 4 5 8 10 11 12 11 9 9 8 8 8 7 7 6 6 5 5 4 4 4 4 4 4 4 4 4 3 3 2 2 2 2 1 1 2 3 4 4 4 5 5 6
5 5 2 0 0 1 3 5 6 6 3 3 3 4 4 3 5 6 4 5 5 4 3 5 4 5 7 7 8 9 9 8 8 8 8 8 8 7 7 6 5 5 5 6 6 8 10 11 12 11 9 9 8 8 8 7 7 7 7 6 5 4 3 3 4 4 5 4 4 4 3 2 2 2 2 3 2 2 3 3 3 4 4 5 5 6
2 1 2 2 3 4 5 7 7 5 4 4 3 3 3 5 4 3 5 6 6 4 1 3 5 4 7 7 8 9 9 8 8 8 8 7 7 7 6 5 6 6 6 6 7 8 9 11 12 11 10 9 8 8 8 8 7 7 7 6 5 4 3 3 3 4 4 4 4 4 4 3 4 3 3 3 3 3 3 3 3 4 4 5 5 6
5 3 4 3 5 6 6 7 7 5 4 4 4 2 3 5 3 1 5 7 6 6 5 4 5 4 6 7 8 8 8 8 8 9 9 8 7 7 5 5 6 6 6 6 7 8 9 11 12 11 10 10 9 8 8 8 7 6 6 6 5 4 3 3 3 3 3 4 4 4 4 4 4 4 3 3 3 3 3 3 3 4 4 5 6 6
3 2 5 6 6 7 6 6 7 5 3 4 5 4 1 2 3 2 6 7 5 6 5 1 0 2 5 7 7 8 8 10 10 10 11 10 9 8 7 7 6 6 6 6 7 8 9 10 11 11 11 11 10 9 8 8 7 5 5 6 5 3 2 3 3 2 2 3 4 4 4 4 4 3 3 3 3 3 3 3 3 4 5 5 6 6
1 4 6 7 7 7 4 4 6 5 4 2 4 3 4 3 4 5 6 6 3 2 3 4 2 1 4 5 4 5 8 9 10 11 11 10 10 9 8 8 7 7 6 6 6 7 8 10 11 11 12 11 10 9 9 8 7 6 6 6 5 3 2 3 3 3 3 3 3 4 4 4 4 4 4 3 3 4 4 3 4 5 5 5 6 6
3 7 8 8 7 6 3 4 5 6 5 2 5 3 6 6 6 6 5 4 1 2 2 4 3 2 3 5 4 4 7 8 9 10 10 10 9 9 9 8 7 7 7 6 7 7 8 10 11 12 12 11 10 9 9 9 8 7 7 6 5 4 3 3 3 3 3 3 3 3 4 5 5 5 4 3 3 3 4 4 5 5 5 5 5 6
5 7 8 9 7 5 5 3 5 8 4 4 5 3 4 5 5 5 5 3 0 3 4 4 3 3 3 5 4 5 6 6 6 7 8 8 9 10 10 9 8 8 7 7 7 8 9 10 11 11 11 11 10 10 10 9 8 8 7 7 6 5 4 3 3 3 3 3 3 3 3 4 4 4 4 4 4 3 4 4 5 5 5 5 5 5
4 3 4 6 5 2 4 2 4 7 2 4 6 4 3 4 4 5 5 2 3 4 1 5 2 3 2 4 4 4 3 3 4 4 5 5 6 8 9 9 9 8 8 7 7 8 9 10 10 10 10 10 11 10 10 10 9 9 8 8 7 6 5 4 3 3 3 3 3 3 3 3 4 3 3 4 4 3 4 4 4 3 4 4 5 5
4 2 2 4 2 2 5 5 3 4 2 5 7 6 5 5 4 4 4 3 4 3 2 4 1 3 1 2 2 2 1 1 3 4 5 5 6 7 8 9 9 9 8 8 8 8 10 10 10 10 11 11 11 10 10 10 10 9 9 9 8 7 6 5 4 3 3 4 3 3 3 3 4 4 3 4 4 4 3 3 2 2 3 4 4 5
6 5 3 3 2 3 7 6 4 3 4 6 6 5 5 4 4 5 4 4 3 2 3 3 1 3 2 2 2 3 3 2 3 4 6 6 7 8 8 8 9 9 8 9 8 9 10 10 11 11 12 11 11 11 11 11 10 10 9 9 9 8 7 6 5 4 4 4 4 4 4 4 3 3 3 3 3 3 3 2 2 2 3 4 4 4
6 6 5 5 5 7 7 6 5 4 6 6 4 4 3 2 4 4 3 3 2 3 4 3 1 3 1 3 2 3 4 4 3 3 4 6 6 8 8 8 7 8 8 9 8 9 9 9 10 12 12 12 12 12 12 11 11 10 10 10 9 8 7 6 5 5 5 5 5 5 5 4 4 3 3 3 3 2 2 2 2 3 3 3 3 3
5 5 7 7 6 9 9 5 5 5 6 6 4 3 1 0 2 3 2 2 2 3 4 3 2 2 1 3 3 4 4 5 4 3 4 5 5 6 7 7 7 7 8 8 8 9 8 8 10 12 12 12 12 12 12 12 11 10 10 10 9 8 8 7 6 5 5 6 5 5 5 4 4 3 3 3 3 2 3 3 3 3 3 3 3 3
4 4 8 9 6 10 12 7 3 3 5 5 2 1 0 0 0 2 1 1 3 3 4 4 3 1 2 3 4 5 5 5 5 5 6 5 5 5 5 6 7 7 7 7 8 9 9 9 11 11 12 12 11 12 12 12 12 11 10 11 10 9 9 8 7 6 6 6 6 6 5 5 4 4 3 3 3 3 4 4 3 3 3 3 4 4
6 3 8 7 4 10 13 6 3 3 4 4 2 3 2 0 1 1 1 3 3 1 3 4 3 1 3 4 5 4 5 6 6 7 8 7 7 6 5 5 6 6 7 7 8 8 9 10 11 11 11 11 11 12 12 11 12 12 11 11 11 10 9 9 8 7 6 6 6 6 6 6 5 5 4 4 4 4 5 4 4 4 4 4 4 4
5 2 8 8 4 7 8 6 6 5 1 4 4 3 2 2 3 2 1 1 3 1 2 2 2 2 4 5 6 7 7 7 8 8 9 8 8 6 5 5 6 6 6 6 7 8 9 10 10 10 11 11 11 12 12 12 12 12 11 11 11 10 9 9 9 7 7 6 6 7 7 7 6 6 6 5 5 5 5 5 5 5 5 5 5 5
4 2 6 7 6 5 3 5 7 4 2 2 2 3 3 1 3 3 1 2 2 1 3 1 0 2 3 4 6 8 8 8 9 9 8 8 7 7 5 5 6 6 6 6 7 7 8 9 10 10 10 11 12 11 12 13 12 12 11 11 12 11 11 10 9 8 7 7 7 7 7 7 7 7 6 6 5 5 5 6 6 6 6 6 5 5
5 4 5 4 4 7 5 6 6 4 5 4 2 2 2 3 3 3 2 2 1 2 3 2 2 1 1 3 6 8 8 8 9 8 8 8 8 7 6 6 7 6 6 6 7 7 7 9 10 11 11 11 12 11 11 12 12 12 12 12 12 11 11 10 10 9 8 7 7 6 7 8 7 7 7 6 6 6 6 7 7 7 7 6 6 6
5 6 4 4 4 7 7 6 6 6 6 4 3 3 3 3 2 0 1 3 2 2 2 1 2 3 3 4 5 6 7 8 8 8 7 8 8 6 6 6 7 7 7 6 7 7 8 9 10 11 11 11 12 11 11 12 12 12 12 12 12 11 11 11 10 10 9 8 7 7 7 7 7 7 7 7 7 7 7 7 7 7 7 7 7 6
4 5 3 5 5 6 7 7 7 7 7 6 6 5 4 2 1 2 1 2 3 1 2 2 2 5 5 3 3 6 6 7 7 7 7 6 7 6 4 5 5 6 7 6 6 7 8 8 10 11 10 11 11 11 11 11 12 12 12 12 12 12 12 12 12 11 10 9 8 8 8 8 8 8 8 8 8 8 8 7 7 7 6 7 7 7
5 6 5 4 6 7 6 5 5 5 5 6 6 5 5 4 3 3 3 2 1 2 2 2 1 5 4 2 3 5 5 6 6 6 6 6 6 5 4 4 4 5 5 5 5 6 7 8 9 10 11 11 11 11 12 11 11 12 12 12 12 12 12 12 12 12 11 10 9 9 9 8 8 9 9 9 9 9 9 8 8 8 8 8 8 8
2 5 7 6 6 4 4 4 1 5 6 6 6 5 5 4 5 5 2 2 2 0 1 2 1 4 5 3 4 5 5 5 5 4 4 4 4 4 4 5 4 4 4 4 4 4 5 7 8 10 11 11 11 11 12 11 11 12 12 12 12 12 12 11 11 11 11 11 10 9 9 9 9 9 10 10 10 10 10 9 9 9 9 9 8 8
1 5 7 7 6 3 5 5 3 4 6 8 7 6 6 6 6 5 1 0 2 2 2 3 2 4 6 5 5 6 6 5 5 4 3 3 4 4 5 5 5 5 5 5 4 4 4 6 7 8 10 11 11 11 11 11 11 11 11 12 12 12 12 11 10 10 11 11 11 10 10 10 10 10 10 11 11 11 11 10 9 9 9 9 8 8
5 7 7 8 7 6 6 5 5 6 7 8 7 7 9 8 6 4 1 2 4 4 4 4 1 5 6 6 7 8 8 8 7 5 4 4 5 5 5 5 5 5 5 5 5 5 5 5 7 8 8 10 10 11 11 11 11 11 11 11 11 11 11 11 11 10 11 11 11 11 11 11 10 11 11 11 11 11 11 10 10 10 9 9 9 9
7 7 8 8 8 7 8 7 6 7 7 7 7 8 10 11 9 6 4 4 5 4 4 5 1 5 7 8 8 10 10 9 8 7 6 6 7 6 6 6 5 5 5 5 5 5 5 4 5 6 7 8 9 9 10 10 11 11 11 11 11 10 10 11 11 11 11 11 11 12 12 12 11 12 12 12 12 11 11 10 10 10 10 10 10 10
5 6 10 11 11 8 8 7 5 5 8 9 11 11 11 12 12 8 5 5 5 3 5 6 4 1 6 9 9 10 10 9 9 9 7 7 8 7 7 7 6 6 5 5 5 4 4 4 3 4 4 5 6 7 8 9 10 10 10 11 10 10 10 10 11 11 11 11 12 12 12 12 12 12 12 12 12 11 11 10 10 11 10 10 10 10
4 7 12 16 16 8 3 2 5 6 9 10 12 12 12 12 12 11 9 7 4 4 5 4 4 5 4 7 8 9 9 9 9 9 8 9 8 8 8 8 8 8 7 6 6 5 5 4 3 3 4 4 5 6 6 7 8 9 9 10 10 10 10 10 11 11 11 12 12 12 12 12 12 12 12 12 12 11 11 11 11 11 11 11 11 11
5 9 11 15 15 7 1 2 4 7 9 9 10 11 12 13 13 13 12 10 8 7 4 1 4 7 5 4 7 9 10 9 10 9 9 9 9 9 10 9 9 9 8 7 6 5 5 4 4 3 3 4 4 5 6 6 7 8 8 8 8 9 9 10 10 11 11 12 12 13 12 12 12 12 12 12 12 12 12 12 12 12 12 12 11 11
5 6 9 12 13 7 3 3 5 8 9 9 10 10 11 13 15 15 13 11 10 8 4 1 5 8 4 1 5 7 8 9 10 10 10 10 10 10 10 9 9 8 7 7 6 5 4 4 4 3 3 3 4 4 5 5 6 7 7 7 7 8 8 9 9 10 11 12 12 12 12 11 12 12 12 13 13 13 13 13 13 12 13 12 12 12
4 3 7 10 10 7 7 6 7 9 10 10 10 10 11 13 14 14 11 8 8 8 5 3 6 7 2 4 6 6 7 9 11 11 11 10 10 10 9 8 8 7 7 6 6 5 5 4 4 4 3 4 4 4 4 4 4 4 4 5 6 6 7 8 8 9 10 11 11 11 11 11 12 12 13 13 13 13 14 13 13 13 13 13 13 13
5 3 5 8 9 7 8 9 10 10 10 11 11 11 11 11 11 11 8 7 8 9 6 6 6 5 3 6 7 7 9 12 13 13 11 10 10 10 10 9 9 7 7 6 5 5 4 4 4 3 3 3 3 4 3 3 3 2 2 3 3 4 5 6 7 8 9 9 10 10 10 10 11 12 12 13 13 14 14 14 14 14 14 14 14 14
8 6 6 8 9 7 9 9 10 9 9 10 9 10 13 13 10 9 8 8 9 8 6 6 4 1 4 7 8 9 11 13 13 13 11 10 11 10 10 10 9 8 7 6 5 5 4 4 4 4 2 2 2 2 2 2 2 1 1 1 1 2 3 4 5 6 7 7 8 8 9 9 10 12 13 13 14 15 15 16 16 16 16 15 15 14
9 9 8 8 8 7 9 9 8 9 9 5 1 4 10 11 11 11 10 9 10 10 6 3 1 4 5 5 6 8 11 11 11 11 11 10 11 10 10 10 10 9 8 7 7 7 6 6 6 6 4 3 3 4 4 3 3 3 3 2 1 1 1 2 3 4 5 6 6 7 8 9 11 12 13 14 15 15 16 17 17 17 17 16 15 16
8 10 9 8 7 6 8 8 8 9 6 3 3 1 2 4 7 9 9 9 10 11 10 5 2 4 4 3 4 5 7 8 9 10 10 10 10 10 11 11 11 11 10 9 9 8 8 8 9 9 8 7 7 6 6 6 5 4 4 4 3 2 1 1 2 3 4 5 6 7 8 9 10 11 12 13 14 15 16 17 17 18 17 16 16 16
8 9 7 5 5 6 7 8 8 5 4 6 5 3 3 2 4 6 9 10 11 11 12 9 5 5 5 5 4 5 7 9 8 8 8 8 10 11 11 11 12 12 11 10 10 10 10 10 11 10 10 9 9 9 9 8 7 6 6 6 5 4 3 2 2 2 3 4 6 6 7 8 10 11 11 12 13 15 15 17 18 18 17 16 16 14
10 9 8 6 4 5 8 9 7 3 4 6 5 5 6 6 6 7 8 9 10 10 10 9 7 6 6 6 6 7 9 9 7 6 6 8 9 11 12 12 13 14 13 13 13 13 12 13 12 12 12 12 12 11 10 9 8 8 8 7 6 6 5 4 4 4 4 5 6 6 7 8 10 11 11 12 13 15 15 17 18 17 17 17 16 14
12 10 8 8 5 5 8 10 8 6 7 8 7 8 9 6 5 6 7 6 6 8 9 9 9 8 8 8 9 10 9 8 7 6 7 9 10 12 14 14 14 16 17 16 15 15 14 14 14 14 14 14 13 11 10 9 8 8 8 7 7 6 6 6 6 6 6 6 7 7 8 8 9 11 11 12 13 14 15 16 16 16 16 17 17 18
12 9 8 8 6 6 8 9 8 8 7 6 8 10 9 7 6 6 5 5 6 9 9 9 8 9 10 10 11 11 9 8 7 8 9 10 12 13 14 14 15 17 18 16 16 16 15 15 15 15 14 14 13 11 9 9 9 8 8 8 7 7 7 7 8 8 8 8 8 8 8 9 10 11 11 12 13 14 14 15 15 14 14 15 16 18
11 8 8 9 8 8 9 9 8 6 3 6 10 11 10 8 8 7 6 3 6 9 9 9 8 9 10 10 11 11 7 5 5 10 12 12 13 13 14 15 15 16 17 17 16 16 15 14 14 14 14 13 11 10 9 9 9 9 8 7 7 8 8 8 8 9 9 9 9 9 9 9 10 11 12 13 14 14 14 13 13 13 13 13 14 14
9 8 9 9 9 10 11 10 8 5 3 7 10 11 11 9 7 8 5 2 5 8 8 8 8 8 10 10 9 7 2 3 9 15 15 14 14 14 15 17 17 16 17 16 14 13 13 13 14 14 13 11 10 9 8 8 8 8 8 7 8 8 8 8 9 10 10 11 11 11 11 11 11 11 12 13 13 13 13 13 12 12 12 12 12 13
8 7 7 8 9 10 9 9 9 6 3 7 10 10 9 8 6 5 2 4 5 7 8 7 7 8 9 9 6 5 8 13 16 17 16 15 16 15 15 17 17 16 16 15 12 11 12 13 14 14 12 10 9 9 8 8 8 8 8 8 9 9 9 10 11 11 12 12 12 12 12 12 12 12 13 12 12 13 13 13 12 12 12 12 12 12
6 6 7 8 8 8 7 9 10 6 5 10 13 8 5 5 3 3 4 4 4 6 8 7 6 8 9 9 9 11 14 17 17 17 17 16 16 16 16 16 16 15 15 13 11 10 12 13 13 12 11 10 9 9 9 9 9 8 8 9 9 10 10 11 11 12 12 12 12 12 13 13 12 12 12 12 13 13 14 13 12 11 11 12 12 13
2 3 6 5 6 7 8 8 6 2 8 14 12 7 7 5 2 1 4 4 4 5 7 6 7 8 10 11 13 14 15 16 17 17 17 16 15 15 15 15 15 15 15 14 12 11 12 12 12 11 10 10 10 10 9 9 9 8 8 8 9 10 11 11 11 12 12 12 11 12 12 12 12 12 12 13 13 13 13 13 13 13 12 12 13 13
1 2 2 2 3 4 3 2 1 3 8 12 5 3 7 7 3 0 2 4 5 5 5 6 8 10 12 14 15 15 15 16 16 16 16 15 15 14 14 14 15 15 15 14 12 11 11 12 12 11 10 10 10 9 9 8 8 8 8 9 9 11 12 12 12 13 13 12 12 12 12 13 12 13 13 13 13 13 13 13 13 14 14 13 13 13
4 5 2 2 2 4 2 1 2 2 8 10 3 4 5 6 4 2 2 4 6 6 6 8 10 12 14 16 15 14 14 16 16 15 15 15 14 14 13 13 14 15 15 14 13 11 11 11 11 10 10 10 9 8 7 7 7 8 9 9 10 12 12 13 14 14 14 14 14 13 13 14 14 15 15 14 13 13 13 12 12 13 13 14 14 13
6 8 6 4 2 2 2 2 3 1 5 7 4 3 3 4 4 3 2 4 7 8 8 10 13 14 15 16 16 16 16 16 16 15 14 14 13 13 12 12 13 15 15 13 12 11 10 10 10 9 9 8 7 6 7 7 8 8 9 10 11 12 13 13 14 15 15 15 15 15 14 15 16 17 17 16 15 15 14 12 12 12 12 13 14 14
6 10 8 6 4 3 1 1 2 1 2 3 3 2 3 5 6 5 5 7 9 10 11 13 14 14 14 15 17 18 17 16 16 15 13 12 12 11 11 13 14 15 14 12 11 9 9 9 9 8 7 7 6 6 7 8 8 9 9 10 11 12 13 13 13 15 15 15 15 15 15 16 17 19 18 18 17 17 16 14 13 13 13 13 13 12
9 9 7 6 6 4 1 1 3 3 3 5 6 3 2 6 8 8 9 11 12 13 14 14 13 14 15 16 17 17 17 15 15 15 13 11 10 11 12 14 15 14 13 11 10 10 9 9 8 7 6 6 6 6 7 8 8 8 9 10 10 11 12 13 14 15 15 15 15 16 16 17 19 19 19 19 19 19 18 17 16 16 16 15 13 12
9 8 6 6 6 4 1 2 2 3 3 6 9 6 4 6 9 11 12 12 14 15 15 15 15 14 15 16 16 16 16 15 14 14 13 11 11 13 15 16 15 14 13 12 10 10 9 8 7 7 6 6 6 6 7 7 7 8 8 9 10 11 12 14 15 15 16 16 16 17 18 19 20 20 20 20 21 20 20 20 19 20 19 17 16 16
7 6 7 7 6 4 6 8 5 5 6 3 7 9 8 8 10 12 14 14 14 15 15 16 17 16 15 15 16 16 15 14 14 14 13 12 13 15 16 15 15 14 12 11 10 9 9 8 7 6 6 6 6 6 6 6 6 7 9 10 11 12 13 15 16 16 17 17 18 18 19 20 20 20 20 20 20 20 20 20 20 20 20 19 18 17
Wind_Direction
201 218 209 232 220 182 202 200 149 117 88 124 190 163 147 142 125 124 127 144 190 215 175 171 171 148 146 144 153 171 184 203 214 211 214 211 207 207 205 202 195 203 192 152 163 175 179 179 176 179 178 175 175 178 180 178 180 184 185 187 193 203 215 225 229 230 229 223 222 229 238 243 234 244 284 277 267 308 360 3 354 357 356 355 358 359
214 245 237 245 283 197 198 183 173 200 202 204 209 171 177 168 124 127 132 139 191 236 152 153 186 166 160 152 152 168 181 192 200 199 201 200 198 200 202 203 193 185 175 167 172 174 178 179 176 179 180 177 178 180 183 184 185 187 190 193 196 203 213 223 234 236 233 233 235 238 243 250 240 244 291 313 300 315 341 346 348 351 353 356 355 357
208 239 255 172 341 219 184 180 192 208 214 211 204 182 178 154 127 141 159 153 182 233 141 154 211 177 168 175 166 178 188 185 188 191 192 191 194 198 196 196 192 189 187 183 182 176 178 181 179 180 182 182 182 181 185 187 188 190 194 200 202 210 222 227 232 229 228 230 235 244 252 263 268 274 300 313 309 303 317 327 336 339 343 349 349 352
228 114 60 91 159 186 183 185 197 207 213 208 205 202 143 141 172 165 162 173 187 231 232 190 236 201 167 181 178 187 195 185 188 197 197 195 195 199 195 187 186 193 191 185 182 175 176 181 183 185 183 182 183 183 184 183 186 192 196 200 203 214 231 230 221 219 223 224 223 235 247 254 269 284 293 295 283 276 296 309 321 329 332 336 339 344
297 52 87 150 172 180 178 183 198 209 200 184 204 236 103 136 207 45 129 170 191 215 240 257 258 210 166 183 183 181 195 197 195 202 206 204 198 196 198 195 190 194 193 187 182 174 176 182 186 188 184 183 186 186 183 179 180 187 191 195 199 214 235 222 209 209 215 218 216 222 230 235 249 267 274 280 280 268 269 285 310 323 324 327 331 335
277 101 145 172 178 184 182 185 200 219 208 166 185 219 222 156 189 128 145 182 199 194 201 185 354 172 162 184 182 168 192 205 200 207 212 207 200 198 201 201 197 197 192 188 183 176 179 184 184 185 185 187 190 187 181 176 175 177 179 186 192 205 223 208 201 209 216 219 222 221 226 233 244 262 270 286 298 286 274 285 310 317 316 319 324 328
186 156 181 187 182 183 194 209 191 213 247 152 135 195 215 211 202 175 177 210 231 112 137 156 176 191 154 162 163 170 204 209 201 211 218 213 204 201 203 199 192 191 185 181 181 179 179 182 183 185 188 192 192 183 175 171 172 174 176 180 188 197 202 200 198 210 229 234 236 235 243 255 263 273 285 301 297 283 282 287 302 314 316 317 321 324
164 171 186 192 190 177 192 240 187 201 252 90 96 187 197 198 205 194 205 236 313 61 153 196 255 282 130 120 129 184 218 214 205 212 216 217 211 205 205 198 186 182 178 174 175 178 178 181 186 187 188 191 187 177 171 171 173 177 180 181 185 191 188 191 196 209 228 241 251 250 254 261 266 275 285 293 286 277 279 283 296 311 315 320 325 324
161 188 187 187 202 188 172 210 182 190 233 83 109 183 184 195 203 195 219 227 221 238 186 158 243 272 112 110 135 184 216 209 203 208 203 204 206 205 204 197 187 177 173 173 170 173 177 181 186 186 183 182 177 174 174 173 175 177 182 184 185 190 187 183 190 203 217 234 253 257 261 266 269 277 284 288 287 282 280 284 297 308 313 320 323 323
126 205 214 195 210 196 138 133 177 195 209 98 140 177 165 192 198 199 229 207 197 245 161 116 223 282 92 119 149 175 204 188 178 190 177 169 186 198 196 191 186 174 172 175 166 166 172 175 180 178 174 172 171 174 175 172 174 176 181 186 189 192 188 184 189 198 208 219 236 249 259 268 272 277 281 287 286 282 281 284 293 304 313 319 319 321
112 108 262 223 226 70 104 105 138 184 151 138 166 177 163 173 187 197 223 226 216 222 112 110 233 295 37 124 137 133 127 137 161 166 153 147 159 172 179 182 182 177 175 174 164 160 160 162 167 169 169 169 168 171 173 173 176 180 182 186 191 193 190 189 193 197 201 206 219 236 248 259 271 275 274 281 286 287 285 280 282 294 305 310 313 316
180 181 187 184 167 126 126 124 125 143 165 183 188 181 165 159 178 189 188 210 224 160 119 117 165 266 267 93 89 103 121 174 193 157 152 154 144 149 168 177 178 178 175 172 167 158 154 156 163 170 172 171 170 172 177 180 181 184 185 186 190 194 193 194 197 198 198 199 211 223 232 242 256 268 270 276 287 295 295 288 285 286 293 302 310 313
200 190 160 146 167 182 166 145 141 160 186 210 214 195 189 159 171 175 160 178 174 110 116 120 183 248 292 70 91 129 145 166 178 156 149 145 133 142 160 167 169 175 177 174 167 158 160 166 169 174 176 175 176 179 181 183 184 186 186 186 191 195 194 196 198 201 201 201 208 217 224 231 236 249 263 270 276 280 281 282 280 282 294 303 305 307
182 165 164 164 173 200 205 184 160 172 197 213 221 200 174 128 154 123 113 149 117 103 116 131 217 238 112 89 115 140 135 131 148 159 143 133 130 139 152 159 162 170 177 172 165 165 170 173 174 176 178 179 181 182 182 182 185 186 186 187 193 195 193 195 198 202 205 207 213 219 224 229 231 234 241 252 260 256 250 254 260 273 289 295 294 296
201 183 181 183 166 185 206 223 197 163 180 196 233 269 215 281 38 77 76 88 96 119 132 147 214 251 96 104 112 123 125 135 156 154 145 147 141 140 148 155 156 161 170 170 169 173 172 170 173 174 177 181 181 180 181 183 185 186 187 189 193 193 192 194 198 203 208 210 213 218 221 227 232 234 237 243 251 248 241 239 243 256 267 278 288 293
233 217 164 165 141 175 195 213 214 200 174 166 218 249 224 336 330 46 17 359 10 144 142 159 223 9 88 127 140 148 151 158 164 155 160 165 153 153 158 157 162 166 170 174 174 172 166 166 170 172 176 180 176 176 180 182 186 188 188 189 192 194 193 193 198 203 208 210 212 214 219 224 226 228 236 243 247 242 235 235 242 247 253 265 278 286
231 189 142 155 160 183 202 192 195 237 218 156 201 217 76 25 291 276 139 259 291 280 113 167 227 146 146 159 158 175 180 170 171 171 173 167 157 165 169 167 178 176 173 175 171 168 165 166 170 173 176 178 176 178 181 184 187 188 189 189 190 193 194 195 198 203 207 210 215 218 219 222 223 222 228 237 244 241 233 236 243 245 250 257 265 276
221 183 145 175 183 166 202 185 181 242 269 198 202 145 111 188 251 268 248 210 216 106 98 121 256 134 159 143 148 176 183 174 178 180 174 167 167 177 178 177 179 170 169 169 164 164 165 167 171 174 178 180 179 182 183 184 185 187 190 190 190 192 195 197 199 202 207 211 217 222 221 222 224 224 227 232 240 240 236 237 239 240 246 250 256 265
212 211 151 178 187 148 166 194 178 199 235 262 329 113 193 248 205 191 250 282 44 85 94 119 127 117 79 104 144 172 176 175 179 179 176 174 178 186 181 176 174 164 164 167 166 166 167 172 174 174 179 179 177 181 183 182 184 187 190 192 193 194 196 198 199 201 206 209 213 220 220 220 223 224 227 231 236 240 242 243 242 241 243 247 252 255
204 230 173 154 172 154 171 208 204 189 197 235 257 206 230 290 323 295 299 315 332 72 67 80 131 117 75 81 131 150 159 172 175 177 185 182 179 187 184 175 176 173 174 178 176 171 169 174 176 175 179 180 177 180 181 181 186 189 190 194 196 195 196 198 200 202 206 208 211 216 216 218 221 222 225 228 233 239 244 248 248 245 242 243 247 249
187 234 214 146 153 175 189 208 217 204 184 197 216 209 206 217 286 290 261 287 308 8 48 24 83 90 78 84 122 128 145 166 169 174 187 185 178 181 180 176 176 173 175 179 177 171 166 167 172 173 178 181 177 178 181 184 189 191 193 198 198 197 199 200 201 204 207 209 211 214 217 219 220 222 224 226 231 237 243 246 245 244 242 243 245 246
193 217 222 178 178 204 200 189 229 242 213 207 210 209 213 207 219 234 198 184 283 333 1 346 48 86 92 126 125 121 143 160 166 170 177 183 181 177 174 169 164 158 158 163 165 164 158 161 171 174 176 180 178 179 184 186 190 193 196 201 200 201 204 205 203 205 207 208 211 215 218 220 221 222 224 227 231 236 240 240 240 241 242 244 245 241
198 216 220 220 212 198 129 112 254 265 247 244 240 230 225 208 219 240 209 151 187 248 345 296 275 95 107 141 133 133 147 149 158 172 178 176 169 164 158 148 144 139 134 144 152 150 150 159 172 176 178 182 181 183 185 186 192 196 198 202 203 204 209 209 206 204 204 207 211 214 217 220 222 223 225 228 233 237 240 240 240 241 241 243 242 237
151 222 224 229 219 170 123 124 160 212 227 238 237 233 232 220 225 250 285 84 238 224 222 245 219 117 122 144 147 151 157 150 157 175 172 144 135 142 143 137 141 139 135 144 147 146 153 161 174 181 183 187 186 184 186 189 194 196 197 203 207 208 211 209 205 203 204 207 212 214 216 220 223 225 226 230 235 239 241 242 243 243 242 243 243 239
185 213 220 225 217 195 185 185 182 186 206 229 227 215 223 224 217 219 214 234 249 241 244 265 257 111 127 154 165 168 173 168 160 161 153 131 129 136 129 123 129 131 137 147 144 148 161 170 182 186 186 191 190 185 186 190 194 195 196 202 208 210 208 206 204 204 206 210 213 214 217 221 224 227 229 232 237 241 243 244 245 245 244 244 244 242
194 207 208 220 219 205 207 209 208 203 199 216 224 211 215 218 207 200 206 226 235 224 231 259 291 101 129 163 175 174 178 170 152 151 153 133 126 130 126 124 127 128 134 141 141 149 160 177 188 183 185 194 192 189 190 191 195 198 197 200 206 206 204 203 203 205 209 213 215 217 219 221 224 228 232 234 237 241 243 245 246 246 246 245 245 244
213 214 208 224 227 222 226 213 197 203 194 200 213 210 210 214 208 208 223 231 231 219 221 242 270 144 158 171 177 181 182 171 155 156 154 136 129 128 124 124 125 125 129 132 138 146 153 168 179 174 185 197 198 198 195 196 200 200 197 198 202 202 201 201 202 206 211 215 219 222 222 222 225 228 232 235 237 240 243 245 245 245 246 246 246 244
221 219 212 225 231 235 268 164 165 205 213 211 215 210 207 209 206 209 223 226 222 230 227 217 242 263 220 167 169 183 185 172 164 165 155 140 138 131 126 128 128 128 131 132 136 141 143 150 157 163 183 197 206 206 200 202 205 201 200 202 201 200 200 200 202 209 213 216 221 225 225 225 226 228 232 235 237 238 240 243 244 243 244 245 245 245
225 223 207 218 227 232 13 111 187 224 234 233 226 213 203 202 202 210 222 222 216 234 255 181 197 240 243 180 167 179 186 178 165 160 150 143 141 136 136 139 135 132 135 133 132 135 135 135 139 150 173 190 203 207 204 207 206 201 204 205 202 201 200 200 205 212 217 220 224 227 228 228 226 228 231 233 236 238 239 241 243 243 243 242 243 243
234 218 188 203 219 220 201 194 208 225 233 234 233 225 211 204 205 213 222 222 221 237 262 242 224 238 246 140 139 158 171 166 151 148 151 151 150 146 145 144 139 136 135 130 128 132 133 133 137 145 165 184 200 206 204 209 209 204 206 207 205 203 201 203 210 217 222 227 229 230 229 228 227 229 230 232 235 237 238 240 242 243 242 242 241 240
223 202 177 193 207 205 193 194 205 220 229 226 221 219 214 210 211 216 220 217 223 237 236 221 241 247 221 101 112 137 152 151 149 154 159 158 153 151 149 144 139 137 134 131 133 135 137 139 139 148 164 176 190 200 202 208 212 205 206 212 211 206 206 211 217 224 230 234 236 235 232 231 231 231 232 234 235 237 239 240 241 242 242 240 240 239
203 204 179 194 209 199 184 191 198 208 226 228 218 208 204 204 206 210 211 206 214 222 211 210 239 249 181 131 130 149 162 162 161 161 163 161 155 154 154 146 139 139 136 137 138 138 143 146 138 142 154 158 173 185 187 190 198 195 203 218 216 208 210 220 229 237 242 245 246 244 241 239 238 239 239 238 237 238 239 239 239 240 240 238 237 236
196 197 183 197 213 191 173 189 196 198 218 229 221 208 204 202 201 202 204 209 216 217 209 219 239 218 137 151 154 163 173 175 170 164 164 162 155 154 154 147 140 136 128 122 120 115 114 120 118 117 121 124 136 138 131 140 150 134 123 149 194 203 215 234 246 255 260 262 261 257 253 250 247 247 246 242 241 240 237 237 238 238 237 237 235 232
203 207 198 202 213 185 163 172 188 206 219 221 213 215 209 205 206 208 209 211 215 216 221 238 99 104 132 161 164 168 177 178 170 162 160 159 154 151 149 142 132 126 119 110 105 100 94 96 96 91 85 79 78 81 82 88 89 79 78 82 82 112 240 264 267 270 272 271 267 261 255 252 250 250 250 246 243 240 238 238 237 236 235 233 231 229
212 212 208 208 214 184 152 164 194 215 213 144 83 75 180 199 217 227 232 224 213 215 224 229 166 136 144 143 142 156 160 154 148 147 150 155 153 147 142 136 127 122 119 109 102 99 95 95 93 86 81 80 83 87 85 85 85 82 80 77 73 74 60 317 284 278 276 274 271 266 261 260 260 260 260 257 251 246 245 245 243 240 236 232 230 229
221 211 198 193 195 167 157 183 202 202 140 119 116 116 121 152 207 231 242 234 219 218 225 227 207 160 145 141 143 144 138 134 128 121 128 145 150 145 139 133 128 122 117 111 105 99 95 93 90 86 83 82 84 84 80 79 79 77 75 71 67 65 54 28 356 330 311 296 289 285 278 273 270 267 265 263 258 252 250 251 249 245 240 236 233 226
228 220 187 171 183 181 185 197 200 178 154 161 165 173 181 187 193 208 234 240 225 216 218 221 212 183 161 150 147 146 145 146 138 119 122 140 145 140 132 127 124 118 112 109 105 100 97 95 91 88 85 80 77 75 73 74 75 73 69 64 61 57 49 34 18 2 343 321 308 300 290 281 276 272 268 263 259 255 252 251 250 246 239 235 228 221
222 228 201 186 196 207 205 205 205 215 218 205 180 164 174 183 177 193 231 246 213 199 205 210 206 190 170 153 149 152 157 162 160 146 142 143 138 132 126 122 119 116 113 113 111 106 102 98 95 92 88 83 77 73 73 74 74 74 69 61 53 47 40 30 17 5 353 339 327 316 303 293 287 283 278 271 266 262 258 255 254 248 238 231 229 231
217 229 223 206 191 193 209 211 208 218 223 195 157 144 153 160 145 165 228 236 182 177 192 196 191 182 171 159 157 162 174 189 178 153 145 145 137 130 126 121 116 114 114 113 111 107 103 100 98 94 90 86 82 77 76 74 71 69 65 57 48 42 35 23 9 358 350 340 330 321 313 303 296 291 287 282 277 272 268 264 261 255 242 237 238 237
207 214 222 213 189 182 202 213 216 220 195 141 136 134 143 151 152 175 221 219 149 162 179 183 183 177 166 161 165 173 195 224 173 143 143 143 133 125 122 118 116 114 111 108 105 106 106 103 101 96 90 87 85 82 79 75 72 68 61 51 42 36 26 11 357 348 340 334 327 321 316 309 302 297 293 290 286 283 278 273 269 263 254 250 248 241
200 201 210 212 198 190 200 216 222 208 132 125 137 136 136 143 167 203 218 137 134 161 170 172 175 168 162 167 178 181 163 85 115 129 136 133 125 119 114 111 109 107 105 103 104 107 107 102 97 94 90 87 85 82 75 70 69 65 56 46 36 24 11 358 348 339 334 330 325 323 323 320 315 308 301 296 293 290 286 282 276 270 263 258 253 247
194 192 199 208 209 203 203 218 224 209 134 128 136 132 141 163 188 207 162 94 133 159 157 161 165 159 162 166 160 128 108 107 116 125 127 124 119 115 111 108 106 103 101 103 108 110 107 101 95 92 88 83 79 73 66 61 59 54 44 36 24 9 357 349 342 336 333 329 326 327 327 324 322 318 310 305 303 299 295 291 286 277 270 267 261 254
190 194 203 201 202 202 199 210 219 212 155 144 137 133 185 202 177 133 121 106 124 147 149 152 151 150 156 147 123 116 119 120 122 124 123 122 119 118 117 116 115 115 115 115 117 114 106 100 96 91 85 78 68 60 56 53 49 41 33 25 12 358 350 346 340 337 335 332 330 332 331 327 327 326 321 319 316 309 302 300 296 287 281 280 276 266
177 215 226 204 194 202 200 204 211 159 152 162 156 159 193 190 55 81 158 139 130 144 146 143 140 144 147 135 124 123 122 121 124 124 122 122 121 121 122 121 122 125 123 119 115 109 102 99 96 91 82 72 63 56 51 48 43 36 25 15 2 352 348 345 343 342 340 337 337 337 334 333 334 332 329 327 324 317 311 309 306 299 294 291 286 278
50 357 284 247 245 248 226 198 12 77 152 169 163 131 156 149 91 33 164 135 139 150 143 137 138 140 138 131 126 127 125 125 126 125 124 125 125 125 126 126 127 124 118 113 110 106 103 101 99 93 83 71 62 55 49 43 38 31 18 6 358 353 349 348 348 347 344 342 342 339 335 334 334 334 332 327 325 322 318 315 314 310 305 301 294 288
33 25 324 266 288 306 318 70 41 114 163 165 122 65 124 140 141 159 144 123 131 134 134 137 138 138 138 134 131 130 130 130 128 126 127 127 127 127 126 125 123 119 113 110 108 106 106 104 100 94 85 71 61 54 46 38 32 24 12 1 358 354 351 351 351 347 343 342 340 335 334 333 332 331 328 323 322 321 319 318 318 316 312 309 304 297
51 25 325 270 238 250 228 141 86 111 181 172 142 103 116 135 149 159 143 124 124 124 130 135 135 137 140 138 134 133 134 133 130 129 129 129 127 127 126 121 117 113 109 109 111 111 110 105 98 90 81 69 55 46 38 29 25 20 9 2 0 356 353 353 350 344 339 337 334 331 330 331 329 326 322 320 319 317 313 312 313 313 312 312 311 308
10 0 325 277 239 229 228 67 57 15 264 217 183 160 149 148 145 134 120 119 121 124 129 132 137 141 142 139 136 134 134 135 134 133 133 131 128 126 123 117 113 110 109 109 109 107 102 97 91 85 77 66 49 38 31 23 20 17 11 5 2 357 353 350 346 339 333 330 328 325 324 324 323 320 317 315 314 312 309 307 306 305 307 308 307 308
314 312 312 296 260 236 201 170 182 183 225 226 218 215 168 151 142 129 125 125 124 126 131 135 139 141 139 137 136 135 135 137 138 137 135 130 126 124 120 116 115 114 113 108 102 98 95 92 88 82 72 58 42 31 27 24 19 15 10 4 359 355 351 345 339 332 327 323 321 318 317 317 315 313 310 308 307 304 303 301 297 294 297 298 294 292
301 299 318 309 262 237 359 360 206 210 252 222 202 194 170 150 144 137 135 134 133 133 135 135 134 133 133 135 136 136 136 137 137 135 130 125 124 124 122 121 120 117 113 109 105 103 97 90 85 77 63 50 39 31 29 26 20 12 6 359 353 350 345 338 331 325 321 319 316 313 311 310 308 307 305 303 302 301 299 298 295 290 288 286 284 285
301 322 325 308 278 285 349 351 327 300 311 273 186 177 170 160 154 147 142 140 139 140 138 135 132 132 133 136 137 136 135 136 136 132 126 124 125 124 124 124 122 119 119 118 113 106 98 90 82 70 57 46 37 32 32 28 19 8 360 352 346 342 337 332 326 320 316 314 311 309 308 305 303 303 302 300 300 301 300 300 299 296 291 286 281 279
Height
761 771 776 774 770 769 768 767 770 773 774 777 777 777 777 779 781 777 776 774 772 780 781 776 778 776 774 773 773 774 775 778 779 779 779 779 779 779 779 779 780 781 781 781 784 786 788 790 792 794 795 797 798 799 800 800 801 802 803 803 804 804 804 805 805 805 805 804 804 804 805 804 804 805 804 804 805 805 805 805 804 804 803 803 803 802
766 776 772 763 761 761 762 765 769 773 775 777 777 778 778 775 776 775 774 773 772 779 778 774 777 776 772 771 770 771 774 777 775 776 778 776 777 776 776 778 777 779 779 780 783 784 787 789 791 793 794 796 797 798 799 800 800 801 802 802 803 803 803 804 804 804 804 804 804 804 804 804 804 804 804 804 804 805 805 805 804 804 803 803 802 802
774 774 763 755 757 759 762 765 769 773 775 777 774 776 778 773 774 776 774 772 773 777 776 774 776 772 767 766 767 768 770 771 769 769 772 772 774 774 774 776 776 778 779 780 781 782 785 787 789 792 793 795 796 797 798 799 799 800 801 801 802 802 802 803 803 803 803 803 803 804 804 804 804 803 804 804 804 805 804 804 804 804 803 803 802 801
772 765 755 753 757 762 767 767 770 774 773 774 772 773 775 771 776 780 776 774 773 774 775 775 774 768 764 765 764 765 764 764 765 765 766 766 769 771 769 771 773 776 778 779 780 781 783 786 787 790 792 793 795 796 797 798 799 799 800 801 801 802 802 802 802 802 803 803 803 804 804 804 804 804 804 804 804 804 804 803 803 803 803 802 802 801
766 758 751 755 758 762 769 770 771 774 772 770 770 771 772 771 774 774 774 774 773 775 771 776 785 772 762 768 765 762 763 763 764 764 765 765 765 767 767 769 771 772 774 776 778 779 781 784 786 788 790 792 794 795 796 797 798 798 799 800 801 801 801 801 802 802 802 802 803 803 804 804 804 804 803 803 803 802 802 802 802 802 802 802 801 801
761 755 751 758 761 760 768 771 769 770 770 770 768 767 768 770 771 770 773 775 779 783 770 781 813 794 762 766 765 760 765 765 764 764 765 764 763 765 768 768 769 770 771 773 775 777 779 782 784 787 789 791 792 793 795 796 797 798 799 799 800 800 801 801 801 802 802 802 802 803 803 803 802 802 802 802 802 802 802 802 802 802 801 801 801 800
757 755 752 758 762 763 769 769 764 765 769 771 766 762 765 768 770 771 773 775 780 784 770 776 809 800 768 765 763 760 765 762 761 763 762 761 761 763 764 765 766 768 769 771 773 774 777 780 782 785 787 789 791 792 794 795 796 797 798 799 799 800 800 800 801 801 802 802 802 802 802 802 802 801 801 801 802 802 802 802 802 801 801 801 800 799
755 757 757 757 760 766 774 772 762 761 769 771 763 761 765 767 770 770 771 774 772 775 773 769 781 785 776 769 762 761 765 762 761 761 760 758 758 759 760 760 762 765 767 769 772 774 775 778 780 783 785 787 789 791 792 794 795 796 797 798 799 799 799 800 800 801 801 802 802 802 802 802 802 801 801 801 801 801 801 801 801 801 800 800 799 799
752 758 759 757 761 765 769 767 758 758 767 766 760 761 763 764 767 767 768 772 770 774 781 772 770 781 781 768 761 763 765 765 762 758 757 755 755 757 758 758 759 761 764 766 769 772 774 776 779 781 783 786 788 790 791 793 794 795 796 797 798 798 799 799 800 800 800 801 801 801 801 801 801 801 801 801 801 801 801 801 801 800 800 799 799 799
749 753 751 753 761 759 757 757 753 758 764 761 760 762 762 763 764 766 769 769 772 782 783 774 771 782 784 768 762 766 765 764 761 755 753 753 753 754 755 756 757 758 761 763 766 769 772 775 778 780 782 784 787 788 790 791 793 794 795 796 797 797 798 798 799 799 800 800 801 801 801 800 800 800 800 800 800 800 800 799 799 799 799 798 798 798
747 748 747 750 755 751 751 755 754 757 760 759 761 763 765 767 765 768 768 765 780 791 783 773 770 779 788 774 760 763 762 758 757 755 754 753 753 754 754 755 756 757 760 761 764 767 770 774 776 779 781 783 785 787 789 790 791 793 794 795 796 796 797 797 798 798 798 799 799 800 800 800 800 799 799 799 799 798 798 798 798 798 798 798 797 797
748 751 750 747 747 747 752 758 758 756 757 759 760 762 770 774 771 774 772 772 792 798 780 771 769 776 790 777 757 756 756 753 754 754 755 754 753 754 754 753 753 755 757 759 762 765 769 773 775 777 780 782 784 785 787 789 790 791 792 793 794 795 796 796 797 797 797 798 798 798 799 799 798 798 798 798 798 798 797 797 797 797 797 797 796 796
750 749 747 747 747 746 752 761 763 761 759 760 760 763 777 787 787 790 787 784 793 791 774 770 775 779 779 765 754 754 752 751 752 750 751 752 753 754 754 753 753 754 756 758 761 765 768 771 773 775 778 780 782 784 785 787 788 790 791 792 793 794 795 795 795 796 796 796 797 797 797 797 797 797 797 797 797 797 797 797 797 797 796 796 796 795
757 751 746 752 752 744 748 758 766 767 763 763 761 763 779 793 800 805 798 791 792 786 771 768 777 781 772 758 751 752 750 750 750 749 750 751 753 754 752 752 754 754 756 757 760 764 766 768 770 773 775 778 780 782 784 785 787 788 789 791 792 793 794 794 795 795 795 796 796 796 796 796 796 796 796 796 796 796 796 796 796 796 795 795 795 794
768 768 752 750 750 744 746 747 751 755 756 759 753 756 771 780 790 800 796 790 790 784 775 775 780 778 772 761 749 747 748 748 749 748 750 751 752 753 752 752 754 756 756 757 759 761 763 765 768 771 773 776 778 780 782 784 785 787 788 789 790 792 792 793 794 794 794 795 795 795 796 796 796 796 796 795 795 795 795 795 795 795 795 794 794 794
764 764 743 739 740 739 745 741 737 746 757 757 750 757 767 762 767 782 785 782 781 781 778 778 774 761 756 753 744 746 749 747 749 749 750 752 751 751 754 754 755 756 756 757 758 759 761 764 767 769 772 774 776 778 780 782 784 785 786 788 789 790 791 792 792 793 793 794 794 794 794 794 794 795 795 794 794 794 794 794 794 794 794 794 793 793
763 760 740 740 742 737 740 739 736 746 757 758 757 762 759 749 754 773 785 783 783 789 781 770 766 754 752 755 746 746 751 748 750 750 749 751 751 752 755 753 754 754 755 756 756 758 760 763 766 768 770 772 774 777 778 780 782 783 785 786 787 789 790 791 791 792 792 793 793 793 793 793 793 793 793 793 794 793 793 793 793 793 793 793 793 793
755 760 745 741 748 741 735 737 740 740 745 755 761 755 748 750 755 764 783 785 782 789 779 766 767 761 760 765 753 748 753 752 750 749 748 750 751 753 753 752 752 752 754 755 755 757 759 761 764 767 769 771 773 775 777 778 780 782 783 784 786 787 788 789 790 790 791 791 792 792 792 792 792 792 792 792 793 793 792 792 792 792 792 792 792 792
743 760 753 740 745 745 737 742 750 745 739 746 750 743 748 765 766 764 779 783 780 788 782 767 764 760 758 760 754 752 754 751 749 748 748 750 750 751 750 750 751 752 754 755 755 757 758 760 763 765 767 769 771 773 775 777 779 780 782 783 784 785 786 787 788 789 790 790 790 791 790 791 791 791 792 791 792 792 791 791 791 790 790 790 790 790
737 757 762 745 740 744 744 747 756 754 746 745 745 743 748 758 761 761 766 769 773 783 783 773 767 760 751 746 746 749 749 747 749 748 748 748 747 747 747 747 749 751 754 754 754 756 756 758 761 763 766 767 769 772 773 775 777 778 780 781 782 784 784 786 787 787 788 788 789 789 789 790 790 790 790 790 791 791 790 790 790 789 789 789 789 789
737 753 761 752 743 748 752 748 747 748 749 752 754 754 754 754 756 760 760 757 762 774 781 780 776 761 744 737 740 744 743 743 745 746 746 745 744 744 744 745 747 749 751 752 752 753 755 757 760 762 765 766 768 770 772 773 775 776 778 779 780 782 783 784 785 785 786 787 787 788 788 788 788 789 789 789 789 789 789 789 789 788 788 788 788 788
739 748 753 753 750 750 747 737 734 736 738 743 749 750 751 752 757 768 772 760 755 764 771 775 778 763 741 734 736 738 740 740 739 742 744 742 742 743 744 746 747 748 751 752 752 753 754 756 759 761 763 765 766 768 770 771 773 774 776 777 778 780 781 782 783 784 785 785 786 786 786 787 787 787 787 787 787 787 787 787 787 787 787 787 786 786
732 739 746 749 743 741 738 733 733 735 731 734 739 738 739 744 751 766 776 766 757 762 761 763 773 763 740 734 736 736 738 738 737 739 741 740 741 743 745 747 748 750 751 752 752 753 754 756 758 760 761 763 764 766 768 769 771 772 774 775 776 777 779 780 781 782 783 784 784 785 785 786 786 786 786 786 786 786 786 786 786 786 786 785 785 785
733 739 746 746 737 732 733 732 732 733 735 739 739 734 736 741 742 748 756 756 760 765 762 765 773 761 741 736 737 737 738 738 740 740 740 742 743 744 746 747 748 750 751 752 753 753 754 756 757 758 759 761 762 764 766 767 769 770 772 773 774 775 777 778 779 781 782 782 783 783 784 784 784 785 785 785 785 785 785 785 785 785 785 784 784 784
736 740 744 751 753 750 749 747 744 740 740 741 737 734 735 735 739 745 747 753 763 762 757 766 770 755 742 738 737 738 739 739 741 741 740 742 744 745 746 747 748 751 751 752 753 754 754 755 755 756 757 758 760 762 764 766 767 768 770 771 772 774 775 777 778 779 780 781 781 782 782 782 783 783 783 784 784 784 784 784 784 784 784 784 784 783
730 735 738 749 762 767 765 758 748 740 738 738 734 735 736 734 740 748 750 760 769 760 754 762 761 748 742 741 739 738 739 739 741 741 740 741 743 745 746 748 749 750 751 753 753 754 755 755 754 755 756 757 758 760 762 764 765 766 768 769 771 772 774 775 776 777 778 779 780 780 780 781 781 782 782 782 782 783 783 783 783 783 783 783 782 782
726 730 731 736 741 744 742 735 726 725 732 738 737 736 736 735 736 742 751 760 760 756 758 754 747 746 745 741 741 739 738 739 741 742 741 741 743 745 746 748 749 749 751 752 753 754 755 755 755 755 757 758 758 759 761 762 763 764 766 768 769 771 772 773 774 775 776 777 778 778 779 779 779 780 780 781 781 781 781 782 782 781 781 781 781 781
729 733 730 728 726 722 722 721 719 722 728 732 732 733 735 734 735 742 750 750 746 756 763 747 739 748 744 735 738 739 736 738 739 740 740 741 743 744 745 747 748 749 750 751 753 754 754 755 756 756 758 759 759 759 760 761 762 763 764 766 767 769 770 771 772 773 774 775 776 776 777 777 778 778 779 779 779 780 780 780 780 779 779 780 779 779
728 731 725 725 725 721 722 723 722 722 724 724 725 728 731 734 737 741 743 739 739 752 754 741 740 747 738 729 732 733 732 734 735 736 737 738 740 742 744 746 747 748 750 750 752 753 753 755 755 756 757 758 759 759 759 760 761 762 763 765 766 768 769 770 771 772 773 773 774 774 775 775 776 776 777 777 777 778 778 777 778 777 777 777 777 777
724 727 722 723 728 726 725 726 724 723 726 726 724 724 726 730 733 735 735 732 734 740 739 737 742 741 730 725 726 726 727 728 731 734 735 737 739 740 742 744 745 747 748 749 751 752 752 753 753 755 757 757 758 758 758 760 760 761 763 764 765 767 768 769 770 770 771 772 772 772 773 773 774 774 774 775 775 775 775 775 775 775 775 775 775 774
723 729 725 722 729 732 728 726 726 726 727 728 727 725 725 728 731 731 732 733 736 739 737 739 745 739 727 724 727 728 727 728 732 735 736 736 737 739 741 743 744 746 747 749 750 751 751 752 753 754 755 756 757 758 758 759 760 761 762 763 764 766 767 768 768 769 769 770 770 771 771 771 772 772 772 772 773 773 773 773 773 773 773 772 772 772
724 731 728 724 733 736 728 727 728 726 726 729 730 729 729 731 733 732 732 734 737 738 741 744 746 738 727 724 729 731 729 730 733 734 735 736 736 738 741 743 744 746 747 748 749 750 751 752 752 754 754 755 756 757 758 759 760 761 762 763 764 765 766 767 767 768 768 768 769 769 769 770 770 770 770 770 770 770 770 770 770 770 770 770 769 769
719 727 726 726 734 735 728 727 726 728 739 741 731 725 726 728 729 731 731 732 730 731 739 743 737 730 726 725 730 733 731 731 731 731 733 735 735 737 740 741 743 745 746 748 749 750 751 751 752 754 755 755 756 756 758 759 760 761 762 763 764 764 766 766 766 767 767 767 768 768 768 768 768 768 768 767 767 767 767 767 767 767 767 767 767 767
715 718 719 719 727 734 731 726 729 742 754 745 724 715 717 721 724 729 729 728 726 724 727 729 727 727 728 727 728 731 730 727 726 727 729 731 734 737 738 740 742 744 746 749 749 750 751 752 753 755 756 757 757 758 759 759 760 761 762 763 764 764 765 766 766 767 766 766 766 766 766 766 766 765 765 764 764 764 763 763 763 763 763 763 763 763
717 716 715 713 719 730 731 733 751 762 747 729 721 717 716 717 719 722 722 720 720 721 720 723 726 727 727 727 727 728 727 725 725 727 728 729 732 736 739 741 743 745 748 750 751 752 753 753 755 756 757 758 758 759 760 760 761 762 763 763 764 765 765 765 765 766 765 765 765 765 765 764 764 764 763 763 763 762 761 761 761 760 761 760 760 760
716 713 714 715 720 730 737 744 757 752 729 721 727 724 721 723 724 727 729 722 716 718 719 721 723 723 725 727 727 727 727 727 728 730 731 731 732 734 738 741 742 745 748 750 752 754 755 756 757 758 759 759 759 759 760 761 762 763 763 764 764 765 765 765 765 765 765 765 764 764 764 763 763 762 762 761 761 759 760 760 758 759 759 758 758 758
711 709 711 721 726 729 736 739 736 733 730 729 727 720 718 721 721 726 733 724 711 711 715 718 721 722 723 726 727 727 728 730 735 738 735 733 733 734 737 739 741 745 748 750 754 755 757 758 759 759 760 760 760 761 762 763 764 764 764 765 765 765 765 765 765 765 764 764 764 763 763 762 761 760 759 759 758 757 756 756 755 755 756 756 755 755
706 706 707 721 728 723 727 733 735 742 742 726 714 710 709 711 711 715 727 725 711 707 712 714 718 721 722 725 728 728 729 734 740 742 737 735 734 735 737 740 742 745 749 752 755 756 758 760 760 761 762 762 762 764 764 764 765 765 765 766 765 766 766 765 765 765 764 764 763 762 762 761 760 759 758 757 756 754 754 753 752 752 752 752 752 751
705 704 701 712 725 724 726 733 738 742 733 712 705 707 707 709 708 713 730 730 710 704 709 711 715 719 720 725 727 727 732 737 738 739 737 736 736 736 739 742 744 747 751 753 755 757 759 760 761 762 763 763 764 766 766 766 766 766 766 767 766 766 766 766 766 765 764 764 763 762 761 760 759 758 757 756 754 753 752 751 750 750 749 749 749 748
708 708 706 712 722 723 724 727 726 724 717 706 704 707 707 705 706 723 747 737 708 702 708 709 713 717 718 722 725 726 730 731 729 733 736 735 736 739 741 744 747 750 752 755 758 759 760 761 762 763 764 765 766 767 767 767 767 768 768 768 768 768 767 767 767 766 765 764 763 762 760 759 758 757 756 755 753 752 751 749 749 748 747 747 746 746
709 708 708 712 716 717 721 724 717 712 709 707 706 705 704 707 718 735 742 723 703 705 708 707 712 715 716 721 724 724 726 724 722 729 734 735 739 742 743 746 750 752 755 758 761 762 762 762 763 764 765 767 767 768 768 768 769 769 769 769 769 769 768 768 767 766 765 764 762 761 760 758 758 756 755 754 752 750 749 748 747 746 745 745 744 744
712 712 712 712 712 711 713 718 717 712 708 705 705 704 705 715 728 728 715 702 701 706 707 708 712 714 716 720 721 723 726 725 725 730 735 738 742 744 746 749 752 755 758 760 763 764 764 764 765 766 767 768 769 769 769 769 770 770 771 771 770 770 769 769 768 766 765 763 762 761 759 758 757 755 754 752 751 750 748 747 745 745 744 743 743 742
708 713 715 709 706 709 714 720 723 719 709 703 706 710 711 714 714 705 699 701 703 703 706 711 712 712 716 720 722 725 726 728 731 734 737 740 743 745 748 751 753 756 758 761 764 765 765 765 766 767 769 770 770 770 771 771 772 771 772 772 772 771 770 769 768 766 765 763 762 760 759 757 756 755 753 752 750 749 747 745 744 743 742 742 741 740
707 712 714 705 700 708 718 717 710 704 699 697 700 704 705 703 699 696 698 702 703 703 706 711 712 713 716 719 724 728 729 731 735 736 739 743 745 747 750 752 755 757 758 761 764 766 766 767 768 769 771 771 772 772 772 773 773 773 774 773 773 772 771 769 768 766 764 763 761 760 759 757 755 754 753 751 750 748 746 744 743 741 740 740 739 738
715 715 719 715 704 701 704 701 695 693 692 693 693 693 694 696 697 697 697 699 702 704 704 708 713 715 716 720 725 729 731 734 737 738 741 745 746 749 752 754 756 758 759 762 765 767 768 769 770 771 773 773 774 774 774 774 775 775 774 774 773 772 770 769 768 766 764 763 761 760 758 756 755 754 752 750 749 747 744 743 741 740 738 737 736 736
712 714 720 718 708 701 699 697 695 696 694 692 694 695 694 695 697 697 697 699 702 703 703 707 712 714 716 720 724 728 733 735 737 741 743 745 748 751 753 756 758 759 760 764 767 768 770 771 772 773 774 774 775 775 775 776 775 775 774 774 773 772 770 769 767 766 764 763 761 760 758 756 755 753 751 749 748 745 743 742 740 738 737 736 734 733
710 715 717 713 708 709 708 700 696 699 698 695 697 698 696 696 696 697 698 699 700 702 704 707 710 714 717 719 723 728 733 735 739 743 745 747 751 753 755 758 759 760 763 766 768 770 771 771 773 774 774 775 776 776 776 776 775 775 774 773 773 772 770 769 768 766 764 763 761 759 758 756 755 753 750 748 746 744 742 740 739 737 736 734 733 732
718 719 718 711 707 709 709 702 699 702 701 698 698 698 696 697 697 697 698 699 700 703 706 708 710 714 717 719 723 728 733 737 741 744 746 749 752 754 756 759 760 763 766 769 770 771 772 772 773 774 775 776 776 776 776 776 775 775 775 774 773 772 771 770 769 767 765 763 761 760 758 756 754 752 749 747 745 743 740 738 737 736 734 733 733 731
724 722 718 712 707 705 705 703 703 705 704 701 699 698 696 696 697 698 700 700 702 705 707 709 711 713 716 721 725 728 734 738 740 742 746 750 752 754 757 760 762 766 768 770 771 772 773 774 774 775 775 776 776 776 776 776 776 776 775 775 774 773 772 771 769 768 766 764 761 760 757 756 754 751 748 745 743 741 738 736 735 734 732 732 731 730
728 725 720 716 714 712 709 706 705 706 705 700 698 698 698 696 697 698 700 701 703 706 708 711 714 716 719 722 725 729 734 738 740 743 747 750 753 756 758 761 764 767 769 771 773 773 774 775 775 776 776 777 776 777 777 777 777 776 776 776 775 774 773 771 769 767 765 763 761 759 757 755 752 749 747 744 741 738 735 733 732 731 729 728 728 727
731 730 727 726 723 718 713 709 707 707 705 698 695 697 697 696 696 698 699 701 704 706 708 711 714 718 722 725 727 730 735 739 741 744 747 751 755 757 759 762 765 767 770 772 773 773 774 775 776 777 777 777 777 777 777 777 778 777 777 776 775 774 773 771 769 767 764 762 760 758 756 753 750 747 745 742 739 736 733 730 728 727 725 724 724 723